Terug naar catalogus

JILIN-1 GAOFEN 07B 01 XING

ActiefWetenschapSSO
NORAD 66993·PAYLOAD·🇨🇳 China
Deze satellietnaam is nog niet bevestigd door officiële bronnen.

Gelanceerd Dec 10, 2025 vanaf Jiuquan Satellite Launch Center

Loading…

Volgende Passages (komende 24 uur)

TLE

VersSource: Space-Track

Epoch: Sep 14, 2026, 10:37 UTC

1 66993U 25292A   26257.44240383  .00002862  00000-0  19553-3 0  9997
2 66993  97.6239 332.2897 0015918  58.4220 301.8559 15.06869773 41884

Volg JILIN-1 GAOFEN 07B 01 XING in realtime met AllMySat

Download on the App Store